K5NCO Weather Reports


time (UTC)temp
C
wind
direction
speed
KPH
gust
KPH
rain 1hr
cm
rain 24hr
cm
rain mn
cm
humidity
%
barometer
mb
20260508065324 16 21 1.6 1.6 0.00 0.00 0.00 85 1016.2
20260508064822 16 0 1.6 3.2 0.00 0.00 0.00 85 1016.4
20260508064319 16 0 1.6 3.2 0.00 0.00 0.00 84 1016.4
20260508063816 16 357 3.2 3.2 0.00 0.00 0.00 84 1016.7
20260508063314 16 358 1.6 1.6 0.00 0.00 0.00 84 1016.8
20260508062811 16 5 0.0 0.0 0.00 0.00 0.00 85 1016.9
20260508062308 16 337 3.2 3.2 0.00 0.00 0.00 84 1017.0
20260508061805 15 320 3.2 3.2 0.00 0.00 0.00 85 1017.3
20260508061302 15 319 0.0 0.0 0.00 0.00 0.00 85 1016.8
20260508060759 15 339 1.6 3.2 0.00 0.00 0.00 85 1016.9
20260508060257 16 36 0.0 0.0 0.00 0.00 0.00 85 1016.6
20260508055752 16 15 0.0 0.0 0.00 0.00 0.00 85 1016.6
20260508055249 16 14 1.6 3.2 0.00 0.00 0.00 84 1016.5
20260508054745 16 1 1.6 3.2 0.00 0.00 0.00 84 1016.8
20260508054244 16 355 0.0 0.0 0.00 0.00 0.00 84 1016.9
20260508053740 16 320 0.0 0.0 0.00 0.00 0.00 84 1016.9
20260508053238 16 308 1.6 3.2 0.00 0.00 0.00 84 1016.9
20260508052735 16 325 3.2 3.2 0.00 0.00 0.00 85 1016.6
20260508052232 16 332 3.2 4.8 0.00 0.00 0.00 85 1016.5
20260508051728 16 336 3.2 3.2 0.00 0.00 0.00 85 1016.6
20260508051223 16 37 3.2 4.8 0.00 0.00 0.00 85 1016.2
20260508050720 16 26 0.0 0.0 0.00 0.00 0.00 84 1016.5
20260508050217 16 12 0.0 0.0 0.00 0.00 0.00 84 1016.8
20260508045713 16 349 3.2 4.8 0.00 0.00 0.00 84 1017.1
20260508045211 16 312 0.0 1.6 0.00 0.00 0.00 84 1017.2
20260508044708 16 293 1.6 3.2 0.00 0.00 0.00 85 1017.4
20260508044204 16 316 4.8 4.8 0.00 0.00 0.00 85 1017.2
20260508043700 15 10 1.6 1.6 0.00 0.00 0.00 86 1016.6
20260508043158 16 27 0.0 0.0 0.00 0.00 0.00 85 1016.3
20260508042654 16 64 3.2 4.8 0.00 0.00 0.00 85 1016.3
20260508042152 16 40 3.2 3.2 0.00 0.00 0.00 84 1016.6
20260508041648 16 315 4.8 4.8 0.00 0.00 0.00 84 1017.4
20260508041145 16 300 1.6 3.2 0.00 0.00 0.00 85 1017.4
20260508040642 16 25 0.0 1.6 0.00 0.00 0.00 84 1016.9
20260508040139 16 343 0.0 1.6 0.00 0.00 0.00 84 1017.2
20260508035636 16 339 0.0 0.0 0.00 0.00 0.00 84 1017.3
20260508035134 16 56 0.0 0.0 0.00 0.00 0.00 83 1017.3
20260508034630 16 57 1.6 1.6 0.00 0.00 0.00 83 1017.4
20260508034127 16 57 1.6 1.6 0.00 0.00 0.00 83 1017.7
20260508033625 16 24 1.6 1.6 0.00 0.00 0.00 83 1017.4
20260508033123 16 328 1.6 3.2 0.00 0.00 0.00 83 1018.1
20260508032619 16 311 4.8 6.4 0.00 0.00 0.00 82 1018.1
20260508032117 16 285 3.2 4.8 0.00 0.00 0.00 84 1017.8
20260508031614 16 267 3.2 3.2 0.00 0.00 0.00 84 1017.6
20260508031110 16 338 0.0 0.0 0.00 0.00 0.00 84 1017.2
20260508030606 16 339 0.0 0.0 0.00 0.00 0.00 83 1017.1
20260508030104 16 338 0.0 0.0 0.00 0.00 0.00 83 1016.9
20260508025600 16 329 0.0 0.0 0.00 0.00 0.00 83 1017.0
20260508025057 16 331 0.0 0.0 0.00 0.00 0.00 83 1016.8
20260508024553 16 34 1.6 1.6 0.00 0.00 0.00 82 1016.4
20260508024050 16 13 0.0 1.6 0.00 0.00 0.00 82 1016.6
20260508023547 16 341 3.2 4.8 0.00 0.00 0.00 81 1016.3
20260508023044 16 16 1.6 1.6 0.00 0.00 0.00 81 1015.8
20260508022540 16 35 0.0 0.0 0.00 0.00 0.00 81 1015.6
20260508022037 16 30 4.8 4.8 0.00 0.00 0.00 81 1015.5
20260508021533 16 353 3.2 6.4 0.00 0.00 0.00 81 1015.3
20260508021029 16 26 6.4 9.7 0.00 0.00 0.00 81 1015.4
20260508020527 16 29 3.2 4.8 0.00 0.00 0.00 80 1015.5
20260508020024 16 16 4.8 6.4 0.00 0.00 0.00 80 1015.7
20260508015521 16 29 3.2 4.8 0.00 0.00 0.00 80 1015.7
20260508015018 16 4 3.2 4.8 0.00 0.00 0.00 79 1016.0
20260508014515 16 1 4.8 4.8 0.00 0.00 0.00 79 1016.0
20260508014011 16 11 4.8 6.4 0.00 0.00 0.00 78 1015.8
20260508013507 16 30 1.6 1.6 0.00 0.00 0.00 78 1015.7
20260508013005 16 45 6.4 9.7 0.00 0.00 0.00 78 1015.9
20260508012502 16 40 3.2 4.8 0.00 0.00 0.00 77 1015.4
20260508011959 17 41 6.4 11.3 0.00 0.00 0.00 77 1015.5
20260508011457 17 57 3.2 4.8 0.00 0.00 0.00 77 1015.9
20260508010954 17 42 3.2 4.8 0.00 0.00 0.00 78 1016.1
20260508010451 17 12 3.2 3.2 0.00 0.00 0.00 76 1016.0
20260508005948 17 21 4.8 4.8 0.00 0.00 0.00 75 1016.4
20260508005445 17 328 3.2 3.2 0.00 0.00 0.00 75 1016.5
20260508004941 17 37 3.2 3.2 0.00 0.00 0.00 75 1016.3
20260508004437 17 27 0.0 1.6 0.00 0.00 0.00 74 1016.2
20260508003934 17 54 8.0 11.3 0.00 0.00 0.00 73 1016.2
20260508003431 17 21 6.4 9.7 0.00 0.00 0.00 73 1016.1
20260508002928 17 50 3.2 3.2 0.00 0.00 0.00 74 1016.2
20260508002425 17 25 3.2 3.2 0.00 0.00 0.00 73 1016.5
20260508001921 17 26 4.8 4.8 0.00 0.00 0.00 72 1016.9
20260508001417 17 25 8.0 11.3 0.00 0.00 0.00 72 1017.0
20260508000913 17 311 4.8 4.8 0.00 0.00 0.00 72 1017.2
20260508000405 18 38 6.4 9.7 0.00 0.00 0.00 71 1017.3
20260507235901 18 23 6.4 6.4 0.00 0.00 0.00 72 1017.3
20260507235358 18 5 4.8 4.8 0.00 0.00 0.00 72 1017.4
20260507234855 18 339 8.0 11.3 0.00 0.00 0.00 72 1017.3
20260507234352 18 348 3.2 4.8 0.00 0.00 0.00 71 1017.3
20260507233848 18 340 3.2 6.4 0.00 0.00 0.00 70 1017.2
20260507233346 18 347 0.0 3.2 0.00 0.00 0.00 71 1017.1
20260507232844 18 349 0.0 1.6 0.00 0.00 0.00 72 1017.2
20260507232340 18 6 4.8 4.8 0.00 0.00 0.00 71 1017.0
20260507231838 18 66 3.2 3.2 0.00 0.00 0.00 71 1016.6
20260507231334 18 41 4.8 6.4 0.00 0.00 0.00 71 1016.7
20260507230830 18 39 3.2 3.2 0.00 0.00 0.00 71 1017.2
20260507230328 18 24 1.6 1.6 0.00 0.00 0.00 70 1017.1
20260507225827 18 14 8.0 11.3 0.00 0.00 0.00 69 1017.3
20260507225324 18 26 1.6 4.8 0.00 0.00 0.00 70 1017.3
20260507224820 18 357 4.8 6.4 0.00 0.00 0.00 70 1016.9
20260507224317 18 36 3.2 3.2 0.00 0.00 0.00 72 1017.0
20260507223813 18 343 1.6 3.2 0.00 0.00 0.00 70 1017.3
20260507223309 18 10 4.8 6.4 0.00 0.00 0.00 70 1017.3
20260507222807 18 351 6.4 11.3 0.00 0.00 0.00 70 1017.4
20260507222306 18 347 3.2 4.8 0.00 0.00 0.00 70 1017.5
20260507221800 18 332 9.7 12.9 0.00 0.00 0.00 69 1017.7
20260507221256 18 304 3.2 4.8 0.00 0.00 0.00 70 1017.9
20260507220752 18 309 9.7 12.9 0.00 0.00 0.00 68 1017.7
20260507220251 18 2 4.8 6.4 0.00 0.00 0.00 69 1017.6
20260507215747 18 345 12.9 14.5 0.00 0.00 0.00 69 1017.5
20260507215244 18 340 8.0 12.9 0.00 0.00 0.00 69 1017.8
20260507214741 18 327 9.7 12.9 0.00 0.00 0.00 69 1018.2
20260507214239 18 340 3.2 4.8 0.00 0.00 0.00 71 1017.9
20260507213733 18 318 8.0 12.9 0.00 0.00 0.00 70 1017.8
20260507213231 18 3 12.9 16.1 0.00 0.00 0.00 70 1017.9
20260507212727 18 1 6.4 11.3 0.00 0.00 0.00 72 1018.1
20260507212224 18 36 4.8 6.4 0.00 0.00 0.00 72 1017.7
20260507211721 18 26 6.4 9.7 0.00 0.00 0.00 73 1017.3
20260507211216 17 35 6.4 6.4 0.00 0.00 0.00 74 1017.5
20260507210714 17 348 4.8 6.4 0.00 0.00 0.00 73 1017.7
20260507210211 17 359 6.4 11.3 0.00 0.00 0.00 73 1017.7
20260507205707 17 352 4.8 6.4 0.00 0.00 0.00 73 1017.9
20260507205204 17 357 9.7 12.9 0.00 0.00 0.00 73 1018.3
20260507204700 18 49 1.6 3.2 0.00 0.00 0.00 73 1018.5
20260507204158 17 337 0.0 1.6 0.00 0.00 0.00 74 1018.6
20260507203656 17 345 3.2 6.4 0.00 0.00 0.00 74 1018.2
20260507203153 17 340 4.8 9.7 0.00 0.00 0.00 73 1018.7
20260507202648 17 23 6.4 11.3 0.00 0.00 0.00 73 1018.7
20260507202144 18 7 4.8 6.4 0.00 0.00 0.00 73 1018.8
20260507201640 17 342 3.2 4.8 0.00 0.00 0.00 75 1018.9
20260507201137 17 11 8.0 11.3 0.00 0.00 0.00 73 1018.7
20260507200633 17 37 6.4 6.4 0.00 0.00 0.00 73 1018.9
20260507200129 17 344 3.2 6.4 0.00 0.00 0.00 75 1018.4
20260507195626 17 336 4.8 9.7 0.00 0.00 0.00 75 1018.5
20260507195123 17 9 6.4 14.5 0.00 0.00 0.00 76 1018.7
20260507194620 17 334 4.8 4.8 0.00 0.00 0.00 75 1019.3
20260507194115 17 15 4.8 4.8 0.00 0.00 0.00 74 1019.2
20260507193613 17 37 8.0 12.9 0.00 0.00 0.00 74 1019.1
20260507193110 17 83 4.8 9.7 0.00 0.00 0.00 75 1019.1
20260507192606 17 53 6.4 9.7 0.00 0.00 0.00 75 1019.0
20260507192103 17 17 4.8 6.4 0.00 0.00 0.00 74 1019.3
20260507191558 16 340 6.4 11.3 0.00 0.00 0.00 75 1019.3
20260507191056 16 10 9.7 11.3 0.00 0.00 0.00 76 1019.2
20260507190553 16 45 1.6 4.8 0.00 0.00 0.00 77 1019.5
20260507190051 16 30 3.2 3.2 0.00 0.00 0.00 76 1019.3
20260507185549 16 36 6.4 9.7 0.00 0.00 0.00 76 1019.0
20260507185046 16 9 3.2 4.8 0.00 0.00 0.00 77 1019.1
20260507184544 16 341 17.7 25.7 0.00 0.00 0.00 75 1019.3
20260507184042 16 65 6.4 9.7 0.00 0.00 0.00 77 1019.2
20260507183537 16 6 6.4 14.5 0.00 0.00 0.00 76 1019.6
20260507183034 16 34 9.7 12.9 0.00 0.00 0.00 76 1019.2
20260507182531 16 49 14.5 20.9 0.00 0.00 0.00 76 1019.0
20260507182027 16 337 8.0 11.3 0.00 0.00 0.00 77 1019.3
20260507181524 16 23 9.7 11.3 0.00 0.00 0.00 76 1019.6
20260507181020 16 358 6.4 6.4 0.00 0.00 0.00 77 1019.6
20260507180516 16 27 8.0 12.9 0.00 0.00 0.00 77 1019.3
20260507180014 16 346 11.3 14.5 0.00 0.00 0.00 77 1019.7
20260507175510 16 13 8.0 12.9 0.00 0.00 0.00 78 1019.6
20260507175007 16 31 9.7 14.5 0.00 0.00 0.00 78 1019.3
20260507174504 16 31 3.2 9.7 0.00 0.00 0.00 79 1019.4
20260507174002 16 20 9.7 12.9 0.00 0.00 0.00 78 1019.6
20260507173459 16 25 3.2 4.8 0.00 0.00 0.00 80 1019.8
20260507172956 16 45 9.7 12.9 0.00 0.00 0.00 81 1019.6
20260507172452 16 33 9.7 16.1 0.00 0.00 0.00 80 1019.7
20260507171949 16 331 11.3 16.1 0.00 0.00 0.00 81 1019.5
20260507171444 15 53 1.6 4.8 0.00 0.00 0.00 82 1019.4
20260507170942 15 40 4.8 9.7 0.00 0.00 0.00 82 1019.2
20260507170438 15 21 8.0 16.1 0.00 0.00 0.00 82 1019.4
20260507165935 15 50 0.0 1.6 0.00 0.00 0.00 83 1019.9
20260507165431 15 2 16.1 20.9 0.00 0.00 0.00 83 1019.6
20260507164926 15 322 3.2 3.2 0.00 0.00 0.00 83 1019.6
20260507164424 15 332 3.2 4.8 0.00 0.00 0.00 84 1019.9
20260507163921 15 32 14.5 20.9 0.00 0.00 0.00 83 1019.8
20260507163418 15 0 11.3 20.9 0.00 0.00 0.00 83 1020.4
20260507162915 15 322 4.8 6.4 0.00 0.00 0.00 84 1020.9
20260507162410 15 28 8.0 11.3 0.00 0.00 0.00 83 1021.3
20260507161908 15 343 4.8 4.8 0.00 0.00 0.00 84 1021.7
20260507161404 15 13 11.3 12.9 0.00 0.00 0.00 83 1021.3
20260507160901 14 38 1.6 1.6 0.00 0.00 0.00 84 1020.5
20260507160356 14 334 3.2 4.8 0.00 0.00 0.00 84 1021.0
20260507155853 14 3 6.4 11.3 0.00 0.00 0.00 84 1020.9
20260507155349 14 352 6.4 9.7 0.00 0.00 0.00 83 1020.8
20260507154845 14 325 12.9 16.1 0.00 0.00 0.00 84 1020.8
20260507154343 14 34 0.0 0.0 0.00 0.00 0.00 84 1020.6
20260507153921 14 4 12.9 16.1 0.00 0.00 0.00 84 1020.8
20260507153840 14 4 12.9 16.1 0.00 0.00 0.00 84 1020.8
20260507153336 14 354 9.7 16.1 0.00 0.00 0.00 84 1020.5
20260507152850 14 333 6.4 16.1 0.00 0.00 0.00 85 1020.5
20260507152833 14 21 4.8 9.7 0.00 0.00 0.00 85 1020.5
20260507152329 14 333 6.4 16.1 0.00 0.00 0.00 85 1020.5
20260507152006 14 289 12.9 16.1 0.00 0.00 0.00 85 1021.0
20260507151825 14 289 12.9 16.1 0.00 0.00 0.00 85 1021.0
20260507151322 14 30 9.7 16.1 0.00 0.00 0.00 86 1020.5
20260507150819 14 17 3.2 4.8 0.00 0.00 0.00 86 1020.7
20260507150315 14 345 9.7 11.3 0.00 0.00 0.00 86 1020.7
20260507145811 14 28 8.0 9.7 0.00 0.00 0.00 86 1020.6
20260507145308 14 21 3.2 6.4 0.00 0.00 0.00 87 1020.9
20260507144805 14 4 9.7 12.9 0.00 0.00 0.00 87 1020.8
20260507144302 15 328 8.0 16.1 0.00 0.00 0.00 87 1020.5
20260507143759 15 309 9.7 12.9 0.00 0.00 0.00 87 1020.5
20260507143256 14 1 8.0 14.5 0.00 0.00 0.00 87 1020.4
20260507142752 15 359 19.3 29.0 0.00 0.00 0.00 87 1020.0
20260507142249 14 359 11.3 16.1 0.00 0.00 0.00 87 1019.9
20260507141745 14 0 6.4 11.3 0.00 0.00 0.00 89 1020.3
20260507141242 14 24 11.3 17.7 0.00 0.00 0.00 90 1020.2
20260507140738 14 353 16.1 20.9 0.00 0.00 0.00 90 1020.1
20260507140236 14 269 11.3 20.9 0.00 0.00 0.00 90 1020.1
20260507135733 14 323 9.7 14.5 0.00 0.00 0.00 90 1020.2
20260507135230 14 321 14.5 22.5 0.00 0.00 0.00 90 1020.0
20260507134726 14 342 8.0 11.3 0.00 0.00 0.00 90 1019.6
20260507134223 14 351 9.7 14.5 0.00 0.00 0.00 91 1019.6
20260507133719 14 1 6.4 14.5 0.00 0.00 0.00 91 1019.7
20260507133216 14 29 8.0 9.7 0.00 0.00 0.00 92 1019.7
20260507132713 14 2 6.4 11.3 0.00 0.00 0.00 92 1019.8
20260507132210 14 274 11.3 14.5 0.00 0.00 0.00 92 1019.6
20260507131706 14 353 8.0 12.9 0.00 0.00 0.00 92 1019.6
20260507131204 14 39 19.3 22.5 0.00 0.00 0.00 92 1019.7
20260507130700 14 332 6.4 9.7 0.00 0.00 0.00 93 1019.8
20260507130158 14 329 9.7 12.9 0.00 0.00 0.00 93 1020.0
20260507125657 14 322 6.4 6.4 0.00 0.00 0.00 93 1019.9
20260507125154 14 342 8.0 9.7 0.00 0.00 0.00 93 1019.4
20260507124650 14 4 6.4 11.3 0.00 0.00 0.00 94 1019.8
20260507124148 14 28 6.4 14.5 0.00 0.00 0.00 94 1019.7
20260507123646 14 356 16.1 17.7 0.00 0.00 0.00 94 1019.7
20260507123143 14 338 6.4 9.7 0.00 0.00 0.00 94 1019.7
20260507122638 14 333 12.9 14.5 0.00 0.00 0.00 94 1019.7
20260507122134 14 323 11.3 16.1 0.00 0.00 0.00 93 1019.7
20260507121630 14 16 19.3 22.5 0.00 0.00 0.00 93 1019.4
20260507121125 14 327 9.7 16.1 0.00 0.00 0.00 93 1019.0
20260507120621 14 352 14.5 17.7 0.00 0.00 0.00 93 1018.9
20260507120113 14 3 8.0 12.9 0.00 0.00 0.00 93 1018.8
20260507115610 14 0 6.4 9.7 0.00 0.00 0.00 93 1018.7
20260507115105 14 353 11.3 17.7 0.00 0.00 0.00 93 1018.7
20260507114601 14 355 8.0 9.7 0.00 0.00 0.00 93 1018.7
20260507114059 14 15 4.8 4.8 0.00 0.00 0.00 93 1018.8
20260507113555 14 349 14.5 20.9 0.00 0.00 0.00 93 1018.5
20260507113053 14 338 9.7 14.5 0.00 0.00 0.00 93 1018.8
20260507112551 14 322 8.0 12.9 0.00 0.00 0.00 93 1018.7
20260507112047 14 34 9.7 14.5 0.00 0.00 0.00 93 1018.8
20260507111544 14 349 8.0 11.3 0.00 0.00 0.00 93 1018.6
20260507111041 14 345 9.7 14.5 0.00 0.00 0.00 93 1018.8
20260507110537 14 317 6.4 6.4 0.00 0.00 0.00 93 1018.7
20260507110034 14 355 11.3 17.7 0.00 0.00 0.00 93 1018.6
20260507105531 13 3 12.9 14.5 0.00 0.00 0.00 93 1018.7
20260507105027 13 357 14.5 17.7 0.00 0.00 0.00 93 1018.8
20260507104525 14 358 9.7 14.5 0.00 0.00 0.00 93 1019.1
20260507104021 14 348 16.1 20.9 0.00 0.00 0.00 93 1018.9
20260507103517 14 326 3.2 6.4 0.00 0.00 0.00 93 1018.5
20260507103014 14 341 12.9 14.5 0.00 0.00 0.00 92 1017.9
20260507102510 14 41 6.4 9.7 0.00 0.00 0.00 92 1018.2
20260507102007 14 311 12.9 16.1 0.00 0.00 0.00 92 1018.3
20260507101502 14 352 4.8 4.8 0.00 0.00 0.00 92 1018.3
20260507100958 14 16 9.7 17.7 0.00 0.00 0.00 92 1018.3
20260507100456 14 5 12.9 17.7 0.00 0.00 0.00 92 1017.9
20260507095954 14 12 6.4 9.7 0.00 0.00 0.00 92 1018.4
20260507095452 14 15 4.8 6.4 0.00 0.00 0.00 92 1018.5
20260507094948 14 359 3.2 3.2 0.00 0.00 0.00 92 1018.7
20260507094444 14 342 8.0 16.1 0.00 0.00 0.00 92 1018.6
20260507093941 14 13 8.0 14.5 0.00 0.00 0.00 92 1018.3
20260507093439 14 335 3.2 9.7 0.00 0.00 0.00 92 1018.4
20260507092937 14 9 6.4 9.7 0.00 0.00 0.00 92 1018.2
20260507092433 14 348 9.7 14.5 0.00 0.00 0.00 91 1018.2
20260507091930 14 347 8.0 9.7 0.00 0.00 0.00 91 1018.3
20260507091426 14 339 3.2 3.2 0.00 0.00 0.00 91 1018.2
20260507090916 14 4 3.2 4.8 0.00 0.00 0.00 91 1017.9
20260507090413 14 339 4.8 4.8 0.00 0.00 0.00 92 1017.8
20260507085910 14 10 6.4 6.4 0.00 0.00 0.00 91 1017.5
20260507085407 14 8 6.4 6.4 0.00 0.00 0.00 91 1017.4
20260507084904 14 347 6.4 11.3 0.00 0.00 0.00 91 1017.4
20260507084401 14 340 4.8 6.4 0.00 0.00 0.00 91 1017.3
20260507083858 14 16 4.8 6.4 0.00 0.00 0.00 91 1017.8
20260507083354 14 342 6.4 6.4 0.00 0.00 0.00 91 1017.4
20260507082850 15 340 4.8 4.8 0.00 0.00 0.00 91 1017.4
20260507082346 14 350 3.2 4.8 0.00 0.00 0.00 91 1017.2
20260507081843 14 27 4.8 6.4 0.00 0.00 0.00 91 1017.2
20260507081339 15 351 4.8 6.4 0.00 0.00 0.00 91 1017.4
20260507080837 15 50 8.0 11.3 0.00 0.00 0.00 91 1017.4
20260507080332 15 12 11.3 12.9 0.00 0.00 0.00 91 1017.1
20260507075828 15 340 4.8 9.7 0.00 0.00 0.00 91 1016.7
20260507075324 15 21 4.8 6.4 0.00 0.00 0.00 91 1016.6
20260507074821 15 4 6.4 9.7 0.00 0.00 0.00 91 1016.8
20260507074318 15 50 6.4 11.3 0.00 0.00 0.00 90 1017.1
20260507073815 15 346 8.0 9.7 0.00 0.00 0.00 90 1017.2
20260507073312 15 37 3.2 3.2 0.00 0.00 0.00 90 1017.1
20260507072809 15 48 3.2 6.4 0.00 0.00 0.00 90 1016.8
20260507072308 15 47 6.4 9.7 0.00 0.00 0.00 90 1016.9
20260507071804 15 52 9.7 12.9 0.00 0.00 0.00 89 1016.8
20260507071300 15 17 6.4 11.3 0.00 0.00 0.00 89 1017.0
20260507070757 15 15 3.2 4.8 0.00 0.00 0.00 88 1017.2
20260507070254 15 320 4.8 11.3 0.00 0.00 0.00 88 1017.0
20260507065751 15 25 3.2 4.8 0.00 0.00 0.00 88 1017.0